Find PROBA-3 OSC

NORAD ID: 62258 Int'l Des: 2024-233 Owner: ESA Country: I-ESA unknown
MEOELLIPTICALHEO_ELLIPTICAL

現在のビュー

3D地球を読み込み中...

PROBA-3 OSCについて

説明を読み込み中...

次回通過

Passes for default location (London). Set your location on the main map for personalized predictions.

高度履歴

Loading altitude history...

軌道要素

1 62258U 24233C 26143.73594178 -.00000097 00000-0 57230-2 0 9993
2 62258 59.6991 99.5464 8005506 204.8721 70.7768 1.22073745 6517
Epoch: May 23, 2026 • Age: 154 hours

現在のステータス

高度 7558.6 km
速度 6.82 km/s
衛星直下点 -49.68°S, 113.85°E
打ち上げ日 Dec 5, 2024
運用期間 1.4 years
タイプ other

技術仕様

分類 Payload
質量 200.00 kg
乾燥質量 200.00 kg
総質量 200.00 kg
長さ 1.40 m
直径 0.90 m
スパン 1.40 m
形状 Cyl
製造者 ADST
バスタイプ Myriade
フェーズステータス In Orbit
所有者/国 ESA/I-ESA

Most Searched